User: anonymous   Login
Location: Bílinka
(49.3579°N, 14.3767°E)
Time: 18:19:38
(UTC+00:00)
Language:

Cosmos 2237 - Orbit

View from above orbital plane
View from above orbital plane
View from above satellite
View from above satellite

Ground track
Ground track

The orbit data is extracted from the following two-line orbital elements,

1 22565U 93016A   24106.52708927 -.00000004  00000-0  24259-4 0  9993
2 22565  70.8233 188.0165 0005598 329.0463  31.0326 14.12514184601696
Epoch (UTC): 15 April 2024 12:39:00
Eccentricity: 0.0005598
inclination: 70.8233°
perigee height: 847 km
apogee height: 855 km
right ascension of ascending node: 188.0165°
argument of perigee: 329.0463°
revolutions per day: 14.12514184
mean anomaly at epoch: 31.0326°
orbit number at epoch: 60169

The dashed part of the orbit path shows where the satellite is in the earth's shadow,  

DLR